Regional Weather Roundup
Issued by NWS

Home | Current Version | Previous Version | Text Only | Print | Product List | Glossary Off
Versions: 1 2 3 4 5 6 7 8 9 10 11 12 13 14 15 16 17 18 19 20 21 22 23 24 25 26 27

000
ASUS45 KBOU 250506
RWRCO

WEATHER ROUNDUP FOR COLORADO
NATIONAL WEATHER SERVICE DENVER/BOULDER CO
1100 PM MDT THU APR 24 2014

NOTE: "FAIR" INDICATES FEW OR NO CLOUDS BELOW 12000 FEET WITH NO
SIGNIFICANT WEATHER AND/OR OBSTRUCTIONS TO VISIBILITY.

COZ001>005-013-030-031-250600-
...NORTHWEST COLORADO...

CITY           SKY/WX    TMP DP  RH WIND       PRES   REMARKS
CRAIG          CLOUDY    45  27  49 CALM      30.02R
HAYDEN         MOCLDY    48  21  34 CALM      30.05S
MEEKER         PTCLDY    43  21  41 NE8       30.02S
MOUNT WERNER   CLOUDY    36  12  38 W13G24    30.16S
STEAMBOAT SPGS CLOUDY    47  21  36 CALM      30.04R
WALDEN         MOCLDY    41  19  42 SW13      30.04F
$$

COZ006>008-011-250600-
...WEST CENTRAL VALLEYS...

CITY           SKY/WX    TMP DP  RH WIND       PRES   REMARKS
GRAND JUNCTION MOCLDY    50  16  25 E5        29.96F
MONTROSE       CLOUDY    48  20  32 SE8       30.05R
EAGLE          MOCLDY    43  18  36 E8        30.07S
RIFLE          PTCLDY    46  20  35 E3        30.01S
DELTA          NOT AVBL
NUCLA          NOT AVBL
$$

COZ017>023-064>068-250600-
...SOUTHWEST COLORADO...

CITY           SKY/WX    TMP DP  RH WIND       PRES   REMARKS
DURANGO        CLEAR     39   1  20 N9        30.08F
CORTEZ         CLEAR     39   9  29 NE3       30.05F
PAGOSA SPRINGS CLEAR     37   1  21 CALM      30.14S
TELLURIDE      PTCLDY    43   9  24 E3        30.16S
WOLF CREEK PAS CLEAR     28  -4  24 SW25G33   30.24F WCI  14
$$

COZ009-010-012-014-032>034-037-058>063-250600-
...CENTRAL COLORADO...

CITY           SKY/WX    TMP DP  RH WIND       PRES   REMARKS
ASPEN          MOCLDY    41  18  39 S9        30.09R
BUENA VISTA    PTCLDY    45   8  21 W16       30.07S
COPPER MTN     MOCLDY    32  10  40 W18       30.19F WCI  20
BERTHOUD PASS  FAIR      23  14  68 NW29G37   30.17F WCI   6
COTTONWOOD PAS PTCLDY    41   5  22 N10G18    30.12S
GUNNISON       MOCLDY    39  12  33 CALM      30.12F
KREMMLING      MOCLDY    39  12  33 E6        30.06S
LEADVILLE      CLOUDY    34  10  37 CALM      30.14S
MONARCH PASS   PTCLDY    30   5  34 W30       30.30S WCI  15
SALIDA         PTCLDY    48   8  20 SW12G17   30.12S
SUNLIGHT       CLOUDY    32  18  55 CALM      30.20S
WILKERSON PASS PTCLDY    32   9  37 SW7       30.17F WCI  26
$$

COZ069>075-250600-
...SAN LUIS VALLEY/SANGRE DE CRISTO MOUNTAINS...

CITY           SKY/WX    TMP DP  RH WIND       PRES   REMARKS
ALAMOSA        CLEAR     45   7  21 SW7       30.08R
LA VETA PASS   PTCLDY    36   1  23 SW12G22   30.14S
SAGUACHE       PTCLDY    39   3  22 N7        30.10S
$$

COZ035-036-038>040-250600-
...NORTHERN COLORADO FRONT RANGE...

CITY           SKY/WX    TMP DP  RH WIND       PRES   REMARKS
DENVER INTL AP PTCLDY    50  30  46 SW12      29.92R
DMNS CITY PARK   N/A     53  29  39 W3        29.92S
AURORA         PTCLDY    55  21  26 W9        29.94S
FRONT RANGE AP NOT AVBL
ERIE MUNI ARPT PTCLDY    44  34  69 S6        29.91F
BOULDER MUN AP PTCLDY    50  32  50 CALM      29.91F
CENTENNIAL     PTCLDY    47  29  49 SE9       29.94S
BROOMFIELD     NOT AVBL
FORT COLLINS   PTCLDY    48  28  46 E5        29.93S
LONGMONT       NOT AVBL
$$

COZ041-046-047-076>085-087-088-250600-
...PIKES PEAK/PALMER DIVIDE AND SOUTHERN FOOTHILLS...

CITY           SKY/WX    TMP DP  RH WIND       PRES   REMARKS
COLO. SPRINGS  MOCLDY    43  20  39 CALM      30.00S
A. F. ACADEMY  MOCLDY    44  21  39 SW7       30.00S
ELLICOTT       NOT AVBL
FALCON         MOCLDY    42  18  37 S5        30.02S
FORT CARSON    PTCLDY    46  21  36 W5        29.98S
LIMON          MOCLDY    39  19  44 SW5       29.96S
MONUMENT HILL  PTCLDY    37  23  56 S9        29.99F
TRINIDAD       PTCLDY    53   7  15 NW6       29.94S
$$

COZ042>045-048>051-090-091-250600-
...NORTHEAST COLORADO...

CITY           SKY/WX    TMP DP  RH WIND       PRES   REMARKS
GREELEY ARPT   MOCLDY    45  27  49 NW7       29.92S
AKRON          PTCLDY    46  22  38 S9        29.91S
BURLINGTON     PTCLDY    43  18  36 S10       29.92S
WRAY           CLEAR     46  23  40 W7        29.89S
STERLING       NOT AVBL
HOLYOKE        NOT AVBL
FORT MORGAN    NOT AVBL
$$

COZ086-089-092>099-250600-
...SOUTHEAST COLORADO...

CITY           SKY/WX    TMP DP  RH WIND       PRES   REMARKS
PUEBLO         PTCLDY    48  22  35 N10       29.93S
LA JUNTA       CLEAR     51  23  33 E12       29.87S
LAMAR          CLEAR     50  24  36 SE10      29.89S
SPRINGFIELD      N/A     48  25  40 S14       29.93S
$$



USA.gov is the U.S. government's official web portal to all federal, state and local government web resources and services.